Printer-friendly version

IAU Minor Planet Center

Minor Planet Center

MPEC 2004-M29 : 2004 MS1

The following Minor Planet Electronic Circular may be linked-to from your own Web pages, but must not otherwise be redistributed electronically.


Read MPEC 2004-M28 Read MPEC 2004-M30


M.P.E.C. 2004-M29                                Issued 2004 June 19, 18:57 UT

     The Minor Planet Electronic Circulars contain information on unusual
         minor planets and routine data on comets.  They are published
   on behalf of Commission 20 of the International Astronomical Union by the
          Minor Planet Center, Smithsonian Astrophysical Observatory,
                          Cambridge, MA 02138, U.S.A.

         Supported in part by the Steven and Michele Kirsch Foundation
             Prepared using the Tamkin Foundation Computer Network

                              MPC@CFA.HARVARD.EDU
          URL http://cfa-www.harvard.edu/iau/mpc.html  ISSN 1523-6714

                                   2004 MS1

Observations:
     K04M01S* C2004 06 18.40679 22 02 33.00 +10 08 37.3          16.7 R EM029703
     K04M01S  C2004 06 18.41420 22 02 23.02 +10 08 10.9          16.6 R EM029703
     K04M01S  C2004 06 18.42161 22 02 13.05 +10 07 46.9          16.6 R EM029703
     K04M01S  C2004 06 18.42902 22 02 03.06 +10 07 18.1          17.1 R EM029703
     K04M01S  C2004 06 18.44215 22 01 45.36 +10 06 30.9          16.3 R EM029703
     K04M01S  C2004 06 18.44623 22 01 39.89 +10 06 16.6          16.6 R EM029703
     K04M01S  C2004 06 18.45027 22 01 34.26 +10 05 58.9          16.4 R EM029703
     K04M01S  C2004 06 18.45434 22 01 29.01 +10 05 47.4          17.0 R EM029703
     K04M01S  C2004 06 18.96916 21 51 38.52 +09 34 57.5          18.1 R EM029J95
     K04M01S  C2004 06 18.97272 21 51 34.57 +09 34 47.6          17.5 R EM029J95
     K04M01S  C2004 06 18.97580 21 51 28.62 +09 34 52.6          16.6 R EM029A50
     K04M01S  C2004 06 18.97619 21 51 28.22 +09 34 51.6          16.7 R EM029A50
     K04M01S  C2004 06 18.97654 21 51 30.44 +09 34 36.0          17.4 R EM029J95
     K04M01S  C2004 06 18.97891 21 51 25.13 +09 34 43.0          16.7 R EM029A50
     K04M01S  C2004 06 18.97929 21 51 24.73 +09 34 41.7          16.9 R EM029A50
     K04M01S  C2004 06 18.97969 21 51 24.30 +09 34 40.5          16.9 R EM029A50
     K04M01S  C2004 06 18.99505 21 51 10.20 +09 33 38.9          17.5 R EM029J95
     K04M01S  C2004 06 19.01891 21 50 41.93 +09 32 40.3          16.5 R EM029461
     K04M01S  C2004 06 19.01962 21 50 41.15 +09 32 38.7                 EM029461
     K04M01S  C2004 06 19.02046 21 50 40.25 +09 32 36.0                 EM029461
     K04M01S  C2004 06 19.02115 21 50 39.47 +09 32 34.1                 EM029461
     K04M01S  C2004 06 19.02150 21 50 38.96 +09 32 32.7                 EM029461
     K04M01S  C2004 06 19.27059 21 46 31.37 +09 20 11.3          17.3 R EM029651
     K04M01S  C2004 06 19.27197 21 46 29.99 +09 20 06.2          17.9 R EM029651
     K04M01S  C2004 06 19.27418 21 46 27.67 +09 20 00.6          18.2 R EM029651
     K04M01S  C2004 06 19.30072 21 46 00.24 +09 18 43.3          17.0 R EM029H06
     K04M01S  C2004 06 19.30263 21 45 58.22 +09 18 36.8          15.5 R EM029H06
     K04M01S  C2004 06 19.30455 21 45 56.19 +09 18 31.4          16.9 R EM029H06
     K04M01S  C2004 06 19.36775 21 44 51.65 +09 15 27.5          18.2   EM029704
     K04M01S  C2004 06 19.37205 21 44 49.20 +09 15 08.9          17.0 R EM029G70
     K04M01S  C2004 06 19.37776 21 44 41.41 +09 14 58.3          17.8   EM029704
     K04M01S  C2004 06 19.38770 21 44 31.28 +09 14 30.1          19.3   EM029704
     K04M01S  C2004 06 19.39274 21 44 28.19 +09 14 09.7          17.6 R EM029G70
     K04M01S  C2004 06 19.39933 21 44 21.49 +09 13 51.4          17.2 R EM029G70
     K04M01S  C2004 06 19.40428 21 44 15.16 +09 13 45.9          16.7 R EM029703
     K04M01S  C2004 06 19.40772 21 44 10.80 +09 13 31.7          19.1   EM029704
     K04M01S 5C2004 06 19.40828 21 44 12.33 +09 13 26.3          17.5 R EM029673
     K04M01S 5C2004 06 19.40943 21 44 11.14 +09 13 22.9                 EM029673
     K04M01S  C2004 06 19.41102 21 44 08.29 +09 13 26.8          17.3 R EM029703
     K04M01S 5C2004 06 19.41152 21 44 09.04 +09 13 16.8                 EM029673
     K04M01S 5C2004 06 19.41626 21 44 04.22 +09 13 03.1                 EM029673
     K04M01S 5C2004 06 19.41777 21 44 02.69 +09 12 58.7                 EM029673
     K04M01S 5C2004 06 19.42020 21 44 00.22 +09 12 51.9                 EM029673
     K04M01S  C2004 06 19.42450 21 43 54.56 +09 12 47.1          16.7 R EM029703

Observer details:
461 Szeged University, Piszkesteto Stn. (Konkoly).  Observer K. Sarneczky.
    0.60-m Schmidt + CCD.
651 Grasslands Observatory, Tucson.  Observer J. E. McGaha.  0.62-m f/5.1
    Newtonian + CCD.
673 Table Mountain Observatory, Wrightwood.  Observer J. Young.  0.6-m
    reflector + CCD.
703 Catalina Sky Survey.  Observers S. Larson, E. Beshore, E. Christensen,
    R. Hill, D. McLean.
704 Lincoln Laboratory ETS, New Mexico.  Observers M. Blythe, F. Shelly,
    M. Bezpalko, R. Huber, L. Manguso, D. Torres, R. Kracke, M. McCleary,
    H. Stange, A. Milner.  Measurers J. Stuart, R. Sayer, J. Evans, J. Kommers.
    1.0-m f/2.15 reflector + CCD.
A50 Andrushivka Astronomical Observatory.  Observers Y. Ivashchenko, V. Lokot,
    O. Drobenko.  0.6-m reflector + CCD.
G70 Francisquito Observatory, Los Angeles.  Observer R. E. Jones.  0.30-m
    f/6.7 reflector + CCD.
H06 New Mexico Skies Observatory.  Observer R. Hutsebaut.  0.25-m reflector
    + CCD.
J95 Great Shefford.  Observer P. Birtwhistle.  0.30-m f/6.3 Schmidt-Cassegrain
    + CCD.

Orbital elements:
2004 MS1
Epoch 2004 July 14.0 TT = JDT 2453200.5                 MPC
M  16.68647              (2000.0)            P               Q
n   0.28843782     Peri.  324.22749     -0.67011567     +0.73244985
a   2.2686521      Node   263.36594     -0.64975240     -0.65717863
e   0.5890126      Incl.    6.95383     -0.35884092     -0.17785800
P   3.42           H   22.1           G   0.15           U   7
Residuals in seconds of arc
040618 703  0.7-  0.2-    040618 A50  0.9+  0.4+    040619 704  0.1-  0.0
040618 703  0.3-  0.2-    040618 J95  0.1-  0.4+    040619 704  0.4+  0.6+
040618 703  0.2+  2.2+    040619 461  0.9-  0.9-    040619 G70  0.2-  0.2-
040618 703  0.2+  0.2-    040619 461  0.7-  0.3-    040619 G70  0.5-  0.3+
040618 703  0.2-  0.4-    040619 461  0.2-  0.4-    040619 703  0.4-  0.4+
040618 703  0.0   0.1-    040619 461  0.4-  0.2-    040619 704  0.1-  0.2+
040618 703 (3.0-  3.3-)   040619 461 (2.2-  0.5-)   040619 673  0.4+  0.4+
040618 703  0.0   0.2-    040619 651  0.3-  0.0     040619 673  0.0   0.3+
040618 J95  0.3+  1.0-    040619 651  0.1-  1.2-    040619 703  0.4-  0.8+
040618 J95  0.6-  0.1+    040619 651  1.4-  0.4-    040619 673  0.3+  0.2+
040618 A50  0.3+  0.3+    040619 H06  1.3+  0.0     040619 673  0.1+  0.2+
040618 A50  0.9+  0.5+    040619 H06  0.3+  1.0-    040619 673  0.1+  0.1+
040618 J95  0.0   0.3+    040619 H06  0.7-  0.9-    040619 673  0.0   0.3+
040618 A50  0.2+  0.4+    040619 704  0.2-  0.3+    040619 703  0.4-  0.1+
040618 A50  0.6+  0.3+    040619 G70  0.3+  0.2-

Ephemeris:
2004 MS1                 a,e,i = 2.27, 0.59, 7                   q = 0.9324
Date    TT    R. A. (2000) Decl.     Delta      r     Elong.  Phase     V
2004 06 14    01 33.82   +14 54.6    0.019    1.006    56.2   122.9    18.5
2004 06 19    21 50.95   +09 36.1    0.039    1.032   112.8    65.2    17.4
2004 06 24    21 00.08   +06 43.0    0.069    1.061   129.1    48.0    18.2
2004 06 29    20 39.46   +05 15.8    0.101    1.093   138.0    38.5    18.8
2004 07 04    20 27.72   +04 13.0    0.133    1.128   144.5    31.6    19.3
2004 07 09    20 19.70   +03 17.5    0.167    1.164   149.8    26.1    19.7
2004 07 14    20 13.68   +02 23.3    0.202    1.201   154.1    21.7    20.1
2004 07 19    20 09.03   +01 28.7    0.239    1.240   157.4    18.3    20.4
2004 07 24    20 05.52   +00 33.7    0.278    1.280   159.5    16.2    20.7
2004 07 29    20 03.01   -00 20.8    0.320    1.320   160.1    15.2    21.1
2004 08 03    20 01.43   -01 13.8    0.364    1.361   159.3    15.3    21.4
2004 08 08    20 00.69   -02 04.9    0.411    1.403   157.4    16.1    21.8
2004 08 13    20 00.76   -02 53.3    0.462    1.444   154.7    17.5    22.1

Kyle E. Smalley              (C) Copyright 2004 MPC           M.P.E.C. 2004-M29

Read MPEC 2004-M28 Read MPEC 2004-M30


Our Web policy. Index to the CBAT/MPC/ICQ pages.


Valid HTML 4.01!